Powrót do katalogu

THORAD AGENA D DEB

AktywnyPO
NORAD 4733·DEBRIS·🇺🇸 United States

Wystrzelony Apr 8, 1970 z Vandenberg Space Force Base

Loading…

Następne Przeloty (najbliższe 24 godziny)

TLE

ŚwieżeSource: Space-Track

Epoka: Sep 14, 2026, 02:13 UTC

1 04733U 70025CG  26257.09246768  .00002046  00000-0  34070-3 0  9994
2 04733  99.8961 304.3504 0089701  23.8129 336.7182 14.68959175918496

Śledź THORAD AGENA D DEB w czasie rzeczywistym z AllMySat

Download on the App Store